Tracking 26955 objects as of 3-Feb-2023
HD Live streaming from Space Station
objects crossing your sky now

ONEWEB-0598

Track ONEWEB-0598 now!
10-day predictions
ONEWEB-0598 is classified as:


NORAD ID: 55154
Int'l Code: 2023-004Q
Perigee: 643.4 km
Apogee: 660.6 km
Inclination: 86.6 °
Period: 97.6 minutes
Semi major axis: 7022 km
RCS: Unknown
Launch date: January 10, 2023
Source: United Kingdom (UK)
Launch site: AIR FORCE WESTERN TEST RANGE (AFWTR)
Your satellite tracking list
Your tracking list is empty




NASA's NSSDC Master Catalog

Two Line Element Set (TLE):
1 55154U 23004Q   23034.08334491  .00052442  00000-0  77164-2 0  9997
2 55154  86.6345 275.4025 0012227 127.4855 238.7363 14.75102594  3693
Source of the keplerian elements: AFSPC